Starlink 3298

operational
NORAD ID: 50165 Int'l Des: 2021-125 Owner: SPXS Country: US Constellation: starlink
LEOCIRCULAR

Starlink 3298について

説明を読み込み中...

リアルタイム位置

3D地球を読み込み中...

次回通過

高度履歴

Altitude vs Time

uPlot chart will show altitude changes over time

軌道要素

1 50165U 21125K 25305.18500681 .00003373 00000-0 22977-3 0 9998
2 50165 53.2168 115.9981 0001271 95.3099 264.8038 15.08858255217103
Epoch: Nov 1, 2025 • Age: 24 hours

現在のステータス

高度 542.9 km
速度 7.60 km/s
衛星直下点 41.43°N, 42.84°E
打ち上げ日 Dec 18, 2021
運用期間 3.8 years
タイプ internet

技術仕様

分類 Payload
質量 290.00 kg
乾燥質量 270.00 kg
総質量 290.00 kg
長さ 0.20 m
直径 2.80 m
スパン 9.00 m
形状 Box + pan
製造者 SPXS
バスタイプ Starlink
フェーズステータス In Orbit
所有者/国 SPXS/US

大規模コンステレーション

Loading constellations...